Weather History for PASA - July, 2013

Change the Weather History Date:

Monday, July 1, 2013

  Actual Average Record
Temperature  
Mean Temperature 40 °F -  
Max Temperature 42 °F 48 °F 60 °F (2000)
Min Temperature 39 °F 38 °F 37 °F (1998)
Degree Days  
Heating Degree Days 24    
Moisture  
Dew Point 39 °F    
Average Humidity 91    
Maximum Humidity 100    
Minimum Humidity 81    
Precipitation  
Precipitation 0.00 in - - ()
Sea Level Pressure  
Sea Level Pressure 29.25 in    
Wind  
Wind Speed 14 mph (East)    
Max Wind Speed 20 mph    
Max Gust Speed 25 mph    
Visibility 6 miles    
Events      
Averages and records for this station are not official NWS values.
T = Trace of Precipitation, MM = Missing Value Source: NWS Daily Summary

Daily Weather History Graph

Daily Weather History Graph

Search for Another Location

Airport or City:

Trip Planner

Search our weather history database for the weather conditions in past years. The results will help you decide how hot, cold, wet, or windy it might be!

Date:

Astronomy

Jul. 01, 2013 Rise Set
Actual Time 5:10 AM AKDT 1:39 AM AKDT
Civil Twilight Sun does not set Sun does not set
Nautical Twilight Sun does not set Sun does not set
Astronomical Twilight Sun does not set Sun does not set
Moon 2:37 AM AKDT (7/1) 6:35 PM AKDT (7/1)
Length of Visible Light 24h 00m
Length of Day
20h 28m
Waning Crescent, 34% of the Moon is Illuminated
Jul 1
Waning Crescent
Jul 7
New
Jul 15
First Quarter
Jul 22
Full
Jul 29
Last Quarter

Hourly Weather History & Observations

Time (AKDT) Temp. Windchill Dew Point Humidity Pressure Visibility Wind Dir Wind Speed Gust Speed Precip Events Conditions
12:16 AM 42.8 °F 36.6 °F 39.2 °F 87% 29.28 in 10.0 mi ESE 11.5 mph - N/A   Overcast
12:36 AM 42.8 °F 36.6 °F 39.2 °F 87% 29.27 in 10.0 mi East 11.5 mph - N/A   Overcast
12:56 AM 42.8 °F 37.0 °F 37.4 °F 81% 29.27 in 10.0 mi ESE 10.4 mph - N/A   Overcast
1:16 AM 42.8 °F 36.2 °F 39.2 °F 87% 29.28 in 10.0 mi ESE 12.7 mph - N/A   Overcast
1:36 AM 42.8 °F 35.4 °F 39.2 °F 87% 29.28 in 10.0 mi ESE 15.0 mph - N/A   Overcast
1:56 AM 42.8 °F 36.2 °F 39.2 °F 87% 29.29 in 10.0 mi East 12.7 mph - N/A   Overcast
2:16 AM 42.8 °F 35.8 °F 39.2 °F 87% 29.28 in 10.0 mi ESE 13.8 mph - N/A   Overcast
2:36 AM 41.0 °F 33.5 °F 39.2 °F 93% 29.28 in 10.0 mi ESE 13.8 mph - N/A   Overcast
2:56 AM 41.0 °F 34.3 °F 39.2 °F 93% 29.28 in 10.0 mi ENE 11.5 mph - N/A   Overcast
3:16 AM 41.0 °F 33.1 °F 37.4 °F 87% 29.28 in 10.0 mi East 15.0 mph - N/A   Overcast
3:36 AM 39.2 °F 30.5 °F 39.2 °F 100% 29.27 in 5.0 mi East 16.1 mph - N/A   Overcast
3:56 AM 39.2 °F 30.8 °F 37.4 °F 93% 29.27 in 4.0 mi East 15.0 mph - N/A   Overcast
4:16 AM 39.2 °F 31.6 °F 37.4 °F 93% 29.27 in 3.0 mi East 12.7 mph - N/A   Overcast
4:36 AM 39.2 °F 32.0 °F 39.2 °F 100% 29.27 in 5.0 mi East 11.5 mph - N/A   Overcast
4:56 AM 39.2 °F 32.0 °F 37.4 °F 93% 29.27 in 5.0 mi East 11.5 mph - N/A   Overcast
5:16 AM 39.2 °F 32.5 °F 37.4 °F 93% 29.27 in 6.0 mi East 10.4 mph - N/A   Overcast
5:36 AM 39.2 °F 31.6 °F 39.2 °F 100% 29.26 in 6.0 mi East 12.7 mph - N/A   Overcast
5:56 AM 39.2 °F 31.6 °F 37.4 °F 93% 29.26 in 1.2 mi East 12.7 mph - N/A   Overcast
6:16 AM 39.2 °F 32.5 °F 37.4 °F 93% 29.26 in 3.0 mi East 10.4 mph - N/A   Overcast
6:36 AM 39.2 °F 31.2 °F 37.4 °F 93% 29.26 in 5.0 mi East 13.8 mph - N/A   Overcast
6:56 AM 39.2 °F 31.2 °F 37.4 °F 93% 29.25 in 5.0 mi East 13.8 mph - N/A   Overcast
7:16 AM 39.2 °F 31.2 °F 39.2 °F 100% 29.26 in 8.0 mi East 13.8 mph - N/A   Overcast
7:36 AM 41.0 °F 33.1 °F 39.2 °F 93% 29.25 in 10.0 mi East 15.0 mph - N/A   Overcast
7:56 AM 41.0 °F 32.8 °F 39.2 °F 93% 29.25 in 10.0 mi East 16.1 mph - N/A   Overcast
8:16 AM 41.0 °F 33.1 °F 37.4 °F 87% 29.25 in 10.0 mi East 15.0 mph - N/A   Overcast
8:36 AM 41.0 °F 32.2 °F 37.4 °F 87% 29.24 in 5.0 mi East 18.4 mph - N/A   Overcast
8:56 AM 41.0 °F 32.8 °F 39.2 °F 93% 29.24 in 10.0 mi East 16.1 mph - N/A   Mostly Cloudy
9:16 AM 41.0 °F 32.2 °F 39.2 °F 93% 29.24 in 10.0 mi ENE 18.4 mph - N/A   Overcast
9:36 AM 41.0 °F 33.1 °F 39.2 °F 93% 29.24 in 5.0 mi ENE 15.0 mph - N/A   Overcast
9:56 AM 41.0 °F 32.8 °F 39.2 °F 93% 29.24 in 10.0 mi ENE 16.1 mph - N/A   Overcast
10:16 AM 41.0 °F 32.5 °F 39.2 °F 93% 29.24 in 7.0 mi ENE 17.3 mph - N/A   Overcast
10:36 AM 41.0 °F 33.1 °F 39.2 °F 93% 29.24 in 5.0 mi ENE 15.0 mph - N/A   Overcast
10:56 AM 41.0 °F 32.8 °F 39.2 °F 93% 29.24 in 9.0 mi ENE 16.1 mph - N/A   Overcast
11:16 AM 41.0 °F 33.1 °F 39.2 °F 93% 29.23 in 5.0 mi ENE 15.0 mph - N/A   Overcast
11:36 AM 41.0 °F 33.1 °F 39.2 °F 93% 29.24 in 3.0 mi ENE 15.0 mph - N/A   Overcast
11:56 AM 41.0 °F 32.5 °F 39.2 °F 93% 29.23 in 3.0 mi ENE 17.3 mph 21.9 mph N/A   Overcast
12:16 PM 41.0 °F 32.5 °F 39.2 °F 93% 29.23 in 2.5 mi ENE 17.3 mph - N/A   Overcast
12:36 PM 41.0 °F 32.5 °F 39.2 °F 93% 29.23 in 9.0 mi East 17.3 mph - N/A   Overcast
12:56 PM 42.8 °F 35.1 °F 39.2 °F 87% 29.23 in 9.0 mi East 16.1 mph - N/A   Overcast
1:16 PM 42.8 °F 34.5 °F 39.2 °F 87% 29.23 in 10.0 mi East 18.4 mph - N/A   Overcast
1:36 PM 42.8 °F 34.8 °F 39.2 °F 87% 29.23 in 10.0 mi East 17.3 mph - N/A   Overcast
1:56 PM 42.8 °F 35.4 °F 39.2 °F 87% 29.24 in 8.0 mi East 15.0 mph - N/A   Overcast
2:16 PM 41.0 °F 32.8 °F 39.2 °F 93% 29.23 in 9.0 mi East 16.1 mph - N/A   Overcast
2:36 PM 42.8 °F 34.5 °F 39.2 °F 87% 29.24 in 7.0 mi East 18.4 mph - N/A   Overcast
2:56 PM 42.8 °F 34.8 °F 41.0 °F 93% 29.24 in 6.0 mi East 17.3 mph - N/A   Overcast
3:16 PM 42.8 °F 34.8 °F 39.2 °F 87% 29.24 in 10.0 mi East 17.3 mph - N/A   Overcast
3:36 PM 42.8 °F 35.1 °F 39.2 °F 87% 29.24 in 7.0 mi East 16.1 mph - N/A   Overcast
3:56 PM 42.8 °F 34.5 °F 41.0 °F 93% 29.24 in 6.0 mi East 18.4 mph - N/A   Overcast
4:16 PM 42.8 °F 34.8 °F 39.2 °F 87% 29.24 in 6.0 mi East 17.3 mph - N/A   Overcast
4:36 PM 42.8 °F 34.8 °F 39.2 °F 87% 29.24 in 10.0 mi East 17.3 mph 23.0 mph N/A   Overcast
4:56 PM 42.8 °F 34.5 °F 39.2 °F 87% 29.23 in 10.0 mi East 18.4 mph 23.0 mph N/A   Overcast
5:16 PM 42.8 °F 34.3 °F 41.0 °F 93% 29.24 in 8.0 mi East 19.6 mph - N/A   Overcast
5:36 PM 42.8 °F 34.3 °F 39.2 °F 87% 29.24 in 8.0 mi East 19.6 mph - N/A   Overcast
5:56 PM 42.8 °F 34.3 °F 39.2 °F 87% 29.24 in 10.0 mi East 19.6 mph 25.3 mph N/A   Overcast
6:16 PM 42.8 °F 34.3 °F 39.2 °F 87% 29.24 in 10.0 mi East 19.6 mph - N/A   Overcast
6:36 PM 42.8 °F 34.8 °F 39.2 °F 87% 29.24 in 9.0 mi East 17.3 mph - N/A   Overcast
6:56 PM 42.8 °F 34.8 °F 39.2 °F 87% 29.24 in 7.0 mi East 17.3 mph 24.2 mph N/A   Overcast
7:16 PM 42.8 °F 35.1 °F 39.2 °F 87% 29.24 in 6.0 mi East 16.1 mph - N/A   Overcast
7:36 PM 42.8 °F 34.8 °F 39.2 °F 87% 29.24 in 6.0 mi East 17.3 mph - N/A   Overcast
7:56 PM 42.8 °F 35.1 °F 39.2 °F 87% 29.24 in 5.0 mi East 16.1 mph 21.9 mph N/A   Overcast
8:16 PM 41.0 °F 32.8 °F 39.2 °F 93% 29.24 in 5.0 mi East 16.1 mph - N/A   Overcast
8:36 PM 42.8 °F 35.1 °F 39.2 °F 87% 29.24 in 3.0 mi East 16.1 mph 20.7 mph N/A   Overcast
8:56 PM 42.8 °F 35.4 °F 39.2 °F 87% 29.25 in 2.5 mi East 15.0 mph - N/A   Overcast
9:16 PM 41.0 °F 33.5 °F 39.2 °F 93% 29.25 in 1.2 mi East 13.8 mph - N/A   Overcast
9:36 PM 41.0 °F 33.5 °F 39.2 °F 93% 29.25 in 2.0 mi East 13.8 mph - N/A   Overcast
9:56 PM 41.0 °F 33.1 °F 39.2 °F 93% 29.25 in 0.8 mi East 15.0 mph - N/A   Overcast
10:16 PM 41.0 °F 33.9 °F 39.2 °F 93% 29.25 in 0.5 mi East 12.7 mph - N/A   Overcast
10:36 PM 41.0 °F 34.7 °F 39.2 °F 93% 29.26 in 1.2 mi East 10.4 mph - N/A   Overcast
10:56 PM 41.0 °F 34.7 °F 39.2 °F 93% 29.26 in 0.2 mi East 10.4 mph - N/A   Overcast
11:16 PM 41.0 °F 34.3 °F 39.2 °F 93% 29.26 in 0.5 mi East 11.5 mph - N/A   Overcast
11:36 PM 41.0 °F 35.2 °F 39.2 °F 93% 29.27 in 1.0 mi East 9.2 mph - N/A   Overcast
11:56 PM 39.2 °F 32.5 °F 39.2 °F 100% 29.27 in 0.8 mi East 10.4 mph - N/A   Overcast